SCP
0 0 0 0 0 0 0 0 0 0 0 0 0 0 0 0 0 0 0 0 0 0 0 0 0 0 0 0 0 0 0 0
0 0 0 0 0 0 0 0 0 0 0 0 0 0 0 0 0 0 0 0 0 0 0 0 0 0 0 0 0 0 0 0
0 0 0 0 0 0 0 0 0 0 0 0 0 0 0 0 0 0 0 0 0 0 0 0 0 0 0 0 0 0 0 0
0 0 0 0 0 0 0 0 0 0 0 0 0 0 0 0 0 0 0 0 0 0 0 0 0 0 0 0 0 0 0 0
0 0 0 0 0 0 0 0 0 0 0 0 0 0 0 0 0 0 0 0 0 0 0 0 0 0 0 0 0 0 0 0
0 0 0 0 0 0 0 0 0 0 0 0 0 0 0 0 0 0 0 0 0 0 0 0 0 0 0 0 0 0 0 0
0 0 0 0 0 0 0 0 0 0 0 0 0 0 0 0 0 0 0 0 0 0 0 0 0 0 0 0 0 0 0 0
0 0 0 0 0 0 0 0 0 0 0 0 0 0 0 0 0 0 0 0 0 0 0 0 0 0 0 0 0 0 0 0
0 0 0 0 0 0 0 0 0 0 0 0 0 0 0 0 0 0 0 0 0 0 0 0 0 0 0 0 0 0 0 0
0 0 0 0 0 0 0 0 0 0 0 0 0 0 0 0 0 0 0 0 0 0 0 0 0 0 0 0 0 0 0 0
0 0 0 0 0 0 0 0 0 0 0 0 0 0 0 0 0 0 0 0 0 0 0 0 0 0 0 0 0 0 0 0
0 0 0 0 0 0 0 0 0 0 0 0 0 0 0 0 0 0 0 0 0 0 0 0 0 0 0 0 0 0 0 0
0 0 0 0 0 0 0 0 0 0 0 0 0 0 0 0 0 0 0 0 0 0 0 0 0 0 0 0 0 0 0 0
-0 0 0 0 0 0 0 0 0 0 0 0 0 0 0 0 0 0 0 0 0 0 0 0 0 0 0 0 0 0 0 0
-0 -0 -0 0 0 0 0 0 0 0 0 0 0 0 0 0 0 0 0 0 0 0 0 0 0 0 0 0 0 0 0 0
-0 -0 -0 -0 0 0 0 0 0 0 0 0 0 0 0 0 0 0 0 0 0 0 0 0 0 0 0 0 0 0 0 0
-0 -0 -0 -0 -0 0 0 0 0 0 0 0 0 0 0 0 0 0 0 0 0 0 0 0 0 0 0 0 0 0 0 0
-0 -0 -0 -0 -0 0 0 0 0 0 0 0 0 0 0 0 0 0 0 0 0 0 0 0 0 0 0 0 0 0 0 0
-0 -0 -0 -0 -0 -0 0 0 0 0 0 0 0 0 0 0 0 0 0 0 0 0 0 0 0 0 0 0 0 0 0 0
0 0 -0 -0 -0 -0 -0 0 0 0 0 0 0 0 0 0 0 0 0 0 0 0 0 0 0 0 0 0 0 0 0 0
Wind_Speed_500mb
103 109 105 103 102 105 106 107 106 101 99 100 95 86 78 72 70 73 67 59 63 59 57 51 50 45 45 45 44 40 38 36
90 97 104 102 102 101 104 107 108 107 103 101 96 87 78 76 73 67 62 62 68 65 60 52 51 47 49 47 45 42 39 37
84 90 95 102 101 100 101 107 110 103 102 103 93 87 82 79 78 72 68 64 72 65 61 55 54 49 50 50 47 44 41 37
56 73 81 89 96 93 96 96 98 98 96 96 92 91 86 82 77 72 69 64 65 71 60 57 54 52 51 49 46 43 40 38
8 29 49 62 72 77 77 79 81 86 86 88 91 91 86 82 76 70 65 66 69 64 59 55 52 52 52 51 48 44 42 40
6 12 14 26 40 50 56 61 67 74 80 84 86 84 79 77 69 64 58 66 67 58 55 53 53 55 54 52 47 45 44 40
15 12 11 23 33 41 50 59 65 72 77 77 76 75 74 72 71 63 65 67 64 53 53 55 58 55 53 49 47 46 44 37
21 19 18 17 19 26 35 43 51 56 58 60 65 66 67 64 58 62 69 61 56 55 56 56 56 54 53 51 48 46 40 39
24 22 17 16 21 22 24 31 40 47 51 54 58 58 56 59 60 61 59 54 56 54 55 56 55 54 52 49 47 43 41 43
25 28 29 28 22 25 30 33 38 41 47 49 50 53 56 57 55 53 54 56 56 54 56 56 55 53 53 50 47 44 43 42
22 24 30 34 35 36 39 39 43 41 42 47 50 52 53 52 53 52 54 53 52 53 55 54 51 51 49 47 44 44 44 41
23 23 25 33 40 44 44 50 48 40 44 50 51 54 54 52 52 51 52 50 51 55 53 51 50 47 45 45 46 43 41 42
36 31 23 25 37 42 47 40 44 43 47 49 51 52 56 55 51 52 50 52 54 53 53 50 45 46 47 46 44 43 46 42
41 36 29 26 30 37 38 40 42 50 50 48 52 54 56 57 56 55 54 52 52 53 51 46 45 48 48 48 48 47 44 42
43 42 37 32 30 34 38 43 51 52 49 46 54 51 54 55 53 53 52 53 52 48 46 43 47 50 53 50 47 46 47 43
40 42 42 40 34 32 35 39 46 49 46 46 52 57 56 56 52 46 44 42 40 39 40 43 46 47 47 48 47 45 39 38
39 41 42 40 38 35 32 32 35 42 46 49 55 58 58 57 56 54 50 46 45 44 42 41 44 48 48 45 39 36 37 36
35 38 43 48 45 39 34 28 28 34 37 39 47 56 59 58 54 53 51 48 44 42 39 40 37 39 35 33 32 32 28 25
26 32 35 41 46 41 32 20 20 24 28 32 41 46 48 49 49 44 42 46 42 35 35 33 32 30 27 24 22 21 20 21
13 19 23 27 32 33 28 17 9 11 16 28 37 42 44 45 43 40 39 36 29 33 32 28 24 22 22 20 18 18 19 20
Wind_Direction_500mb
223 224 223 223 223 222 224 225 226 227 230 233 233 231 233 235 241 243 237 232 234 237 230 228 231 226 229 227 227 226 225 223
220 223 225 225 224 224 225 227 228 230 230 234 235 235 233 236 237 242 243 237 237 236 233 230 230 225 228 226 226 227 225 224
229 227 225 226 226 225 225 226 230 232 232 236 236 237 236 237 235 240 241 240 239 236 230 227 228 226 226 227 226 226 227 226
221 223 224 226 227 227 229 230 232 234 234 237 238 238 237 237 239 240 238 240 235 239 233 225 225 226 224 225 226 228 227 229
193 217 222 225 228 230 231 233 233 232 233 234 236 236 239 236 239 240 238 239 233 230 226 224 225 226 223 223 224 226 228 232
341 255 211 211 212 216 221 225 227 228 229 232 232 232 233 235 238 240 238 236 230 226 222 224 225 225 222 222 225 229 231 233
1 325 284 260 247 237 231 228 228 231 233 235 236 235 234 236 239 231 229 228 225 220 224 225 224 222 221 222 227 231 234 236
4 348 330 303 274 256 248 242 237 234 232 231 232 232 234 236 220 218 222 221 221 222 224 224 224 222 220 222 226 232 235 238
340 336 329 299 284 272 257 248 242 236 233 232 232 233 226 220 221 222 221 221 226 225 224 223 222 219 220 222 228 233 235 240
306 299 298 300 281 268 261 253 245 242 238 231 228 223 219 219 219 220 223 225 226 225 224 224 220 219 219 220 226 231 237 242
316 297 285 281 279 267 260 258 255 249 240 233 229 225 225 223 223 222 224 226 226 225 225 222 221 222 220 221 226 234 239 244
332 321 300 276 273 269 264 258 259 255 248 243 236 236 232 227 228 225 223 222 224 225 223 222 220 222 220 223 229 237 243 248
342 336 314 285 269 271 268 272 267 257 252 245 239 236 232 229 224 222 221 221 221 220 220 221 220 220 220 225 231 237 243 251
345 339 328 301 288 274 271 252 253 253 249 242 235 231 229 226 222 219 218 219 220 220 220 221 221 220 221 227 233 240 249 257
347 342 334 321 302 283 269 259 245 245 247 234 229 225 226 225 222 222 220 218 217 217 220 219 220 221 225 230 238 246 253 257
353 346 341 331 318 301 283 267 254 247 240 229 228 220 218 220 221 218 218 220 222 221 222 223 225 227 231 234 241 248 249 252
359 359 351 342 330 315 295 273 258 248 238 229 222 216 213 213 209 205 204 209 211 209 215 223 226 227 231 237 243 245 252 257
356 6 6 352 340 331 317 289 253 241 230 233 224 215 207 205 206 207 205 206 208 210 218 223 228 230 231 233 242 249 254 251
360 3 10 0 346 343 333 312 273 245 224 217 216 209 205 200 199 205 212 207 199 209 214 215 217 225 233 240 242 238 245 251
351 354 4 11 2 353 343 350 322 261 228 213 203 199 196 193 189 190 195 188 198 199 198 201 206 214 225 229 233 237 246 253
Wind_Speed_850mb
103 109 105 103 102 105 106 107 106 101 99 100 95 86 78 72 70 73 67 59 63 59 57 51 50 45 45 45 44 40 38 36
90 97 104 102 102 101 104 107 108 107 103 101 96 87 78 76 73 67 62 62 68 65 60 52 51 47 49 47 45 42 39 37
84 90 95 102 101 100 101 107 110 103 102 103 93 87 82 79 78 72 68 64 72 65 61 55 54 49 50 50 47 44 41 37
56 73 81 89 96 93 96 96 98 98 96 96 92 91 86 82 77 72 69 64 65 71 60 57 54 52 51 49 46 43 40 38
8 29 49 62 72 77 77 79 81 86 86 88 91 91 86 82 76 70 65 66 69 64 59 55 52 52 52 51 48 44 42 40
6 12 14 26 40 50 56 61 67 74 80 84 86 84 79 77 69 64 58 66 67 58 55 53 53 55 54 52 47 45 44 40
15 12 11 23 33 41 50 59 65 72 77 77 76 75 74 72 71 63 65 67 64 53 53 55 58 55 53 49 47 46 44 37
21 19 18 17 19 26 35 43 51 56 58 60 65 66 67 64 58 62 69 61 56 55 56 56 56 54 53 51 48 46 40 39
24 22 17 16 21 22 24 31 40 47 51 54 58 58 56 59 60 61 59 54 56 54 55 56 55 54 52 49 47 43 41 43
25 28 29 28 22 25 30 33 38 41 47 49 50 53 56 57 55 53 54 56 56 54 56 56 55 53 53 50 47 44 43 42
22 24 30 34 35 36 39 39 43 41 42 47 50 52 53 52 53 52 54 53 52 53 55 54 51 51 49 47 44 44 44 41
23 23 25 33 40 44 44 50 48 40 44 50 51 54 54 52 52 51 52 50 51 55 53 51 50 47 45 45 46 43 41 42
36 31 23 25 37 42 47 40 44 43 47 49 51 52 56 55 51 52 50 52 54 53 53 50 45 46 47 46 44 43 46 42
41 36 29 26 30 37 38 40 42 50 50 48 52 54 56 57 56 55 54 52 52 53 51 46 45 48 48 48 48 47 44 42
43 42 37 32 30 34 38 43 51 52 49 46 54 51 54 55 53 53 52 53 52 48 46 43 47 50 53 50 47 46 47 43
40 42 42 40 34 32 35 39 46 49 46 46 52 57 56 56 52 46 44 42 40 39 40 43 46 47 47 48 47 45 39 38
39 41 42 40 38 35 32 32 35 42 46 49 55 58 58 57 56 54 50 46 45 44 42 41 44 48 48 45 39 36 37 36
35 38 43 48 45 39 34 28 28 34 37 39 47 56 59 58 54 53 51 48 44 42 39 40 37 39 35 33 32 32 28 25
26 32 35 41 46 41 32 20 20 24 28 32 41 46 48 49 49 44 42 46 42 35 35 33 32 30 27 24 22 21 20 21
13 19 23 27 32 33 28 17 9 11 16 28 37 42 44 45 43 40 39 36 29 33 32 28 24 22 22 20 18 18 19 20
Wind_Direction_850mb
223 224 223 223 223 222 224 225 226 227 230 233 233 231 233 235 241 243 237 232 234 237 230 228 231 226 229 227 227 226 225 223
220 223 225 225 224 224 225 227 228 230 230 234 235 235 233 236 237 242 243 237 237 236 233 230 230 225 228 226 226 227 225 224
229 227 225 226 226 225 225 226 230 232 232 236 236 237 236 237 235 240 241 240 239 236 230 227 228 226 226 227 226 226 227 226
221 223 224 226 227 227 229 230 232 234 234 237 238 238 237 237 239 240 238 240 235 239 233 225 225 226 224 225 226 228 227 229
193 217 222 225 228 230 231 233 233 232 233 234 236 236 239 236 239 240 238 239 233 230 226 224 225 226 223 223 224 226 228 232
341 255 211 211 212 216 221 225 227 228 229 232 232 232 233 235 238 240 238 236 230 226 222 224 225 225 222 222 225 229 231 233
1 325 284 260 247 237 231 228 228 231 233 235 236 235 234 236 239 231 229 228 225 220 224 225 224 222 221 222 227 231 234 236
4 348 330 303 274 256 248 242 237 234 232 231 232 232 234 236 220 218 222 221 221 222 224 224 224 222 220 222 226 232 235 238
340 336 329 299 284 272 257 248 242 236 233 232 232 233 226 220 221 222 221 221 226 225 224 223 222 219 220 222 228 233 235 240
306 299 298 300 281 268 261 253 245 242 238 231 228 223 219 219 219 220 223 225 226 225 224 224 220 219 219 220 226 231 237 242
316 297 285 281 279 267 260 258 255 249 240 233 229 225 225 223 223 222 224 226 226 225 225 222 221 222 220 221 226 234 239 244
332 321 300 276 273 269 264 258 259 255 248 243 236 236 232 227 228 225 223 222 224 225 223 222 220 222 220 223 229 237 243 248
342 336 314 285 269 271 268 272 267 257 252 245 239 236 232 229 224 222 221 221 221 220 220 221 220 220 220 225 231 237 243 251
345 339 328 301 288 274 271 252 253 253 249 242 235 231 229 226 222 219 218 219 220 220 220 221 221 220 221 227 233 240 249 257
347 342 334 321 302 283 269 259 245 245 247 234 229 225 226 225 222 222 220 218 217 217 220 219 220 221 225 230 238 246 253 257
353 346 341 331 318 301 283 267 254 247 240 229 228 220 218 220 221 218 218 220 222 221 222 223 225 227 231 234 241 248 249 252
359 359 351 342 330 315 295 273 258 248 238 229 222 216 213 213 209 205 204 209 211 209 215 223 226 227 231 237 243 245 252 257
356 6 6 352 340 331 317 289 253 241 230 233 224 215 207 205 206 207 205 206 208 210 218 223 228 230 231 233 242 249 254 251
360 3 10 0 346 343 333 312 273 245 224 217 216 209 205 200 199 205 212 207 199 209 214 215 217 225 233 240 242 238 245 251
351 354 4 11 2 353 343 350 322 261 228 213 203 199 196 193 189 190 195 188 198 199 198 201 206 214 225 229 233 237 246 253